Back to catalog

STARLINK-36430

AliveCommunicationsVLEO
NORAD 67326·PAYLOAD·🇺🇸 United States

Launched Jan 4, 2026 from Cape Canaveral Space Force Station

Loading…

Next Passes (next 24 hours)

TLE

FreshSource: CelesTrak SupGP

Epoch: Sep 15, 2026, 03:42 UTC

1 67326C 26002X   26258.15465278  .00044075  00000+0  15959-2 0  2583
2 67326  43.0021 334.8551 0001415 266.7012 317.1255 15.27567409    11

Track STARLINK-36430 in real time with AllMySat

Download on the App Store